FW6625 Weather Reports


time (UTC)temp
C
wind
direction
speed
KPH
gust
KPH
rain 1hr
cm
rain 24hr
cm
rain mn
cm
humidity
%
barometer
mb
20260507044540 24 275 0.0 1.6 0.00 0.00 0.00 96 1012.1
20260507043042 24 0 0.0 1.6 0.00 0.00 0.00 96 1012.1
20260507041544 24 0 0.0 0.0 0.00 0.00 0.00 96 1012.1
20260507040038 24 0 0.0 0.0 0.00 0.00 0.00 96 1012.0
20260507034538 24 0 0.0 0.0 0.00 0.00 0.00 95 1011.9
20260507033044 24 0 0.0 0.0 0.00 0.00 0.00 95 1011.7
20260507031541 24 0 0.0 0.0 0.00 0.00 0.00 95 1011.5
20260507030038 24 0 0.0 0.0 0.00 0.00 0.00 95 1011.1
20260507024537 25 0 0.0 1.6 0.00 0.00 0.00 95 1011.1
20260507023041 25 0 0.0 1.6 0.00 0.00 0.00 95 1010.8
20260507021545 25 0 0.0 1.6 0.00 0.00 0.00 95 1010.5
20260507020055 25 119 0.0 3.2 0.00 0.00 0.00 94 1010.3
20260507014544 25 0 0.0 1.6 0.00 0.00 0.00 94 1010.2
20260507013048 25 0 0.0 3.2 0.00 0.00 0.00 94 1010.1
20260507011544 25 0 0.0 0.0 0.00 0.00 0.00 93 1009.9
20260507010044 25 0 0.0 3.2 0.00 0.00 0.00 93 1009.7
20260507004544 25 67 1.6 8.0 0.00 0.00 0.00 92 1009.4
20260507003038 26 0 0.0 3.2 0.00 0.00 0.00 92 1009.4
20260507001538 26 0 0.0 6.4 0.00 0.00 0.00 91 1009.4
20260507000037 26 0 0.0 3.2 0.00 0.00 0.00 90 1009.4
20260506234539 26 89 1.6 6.4 0.00 0.00 0.00 90 1009.4
20260506233043 26 52 1.6 8.0 0.00 0.00 0.00 90 1009.3
20260506231551 26 122 1.6 6.4 0.00 0.00 0.00 89 1009.1
20260506230052 27 127 0.0 6.4 0.00 0.00 0.00 88 1008.8
20260506224539 27 65 1.6 6.4 0.00 0.00 0.00 88 1008.8
20260506223049 27 51 0.0 8.0 0.00 0.00 0.00 88 1008.7
20260506221544 27 64 1.6 9.7 0.00 0.00 0.00 89 1008.7
20260506220038 27 34 1.6 9.7 0.00 0.00 0.00 89 1008.7
20260506214537 26 88 3.2 12.9 0.00 0.00 0.00 90 1008.7
20260506213059 26 85 4.8 11.3 0.00 0.00 0.00 90 1009.0
20260506211549 26 113 3.2 11.3 0.00 0.00 0.00 90 1009.2
20260506210037 26 61 3.2 11.3 0.00 0.00 0.00 89 1009.2
20260506204550 27 108 1.6 12.9 0.00 0.00 0.00 89 1009.3
20260506203047 26 89 6.4 16.1 0.00 0.00 0.00 89 1009.3
20260506201555 26 71 3.2 12.9 0.00 0.00 0.00 90 1009.4
20260506200039 26 58 4.8 12.9 0.00 0.00 0.00 90 1009.7
20260506194546 26 334 3.2 16.1 0.00 0.00 0.00 89 1009.6
20260506193044 26 96 3.2 9.7 0.00 0.00 0.00 90 1010.0
20260506191547 26 111 1.6 6.4 0.00 0.00 0.00 90 1010.2
20260506190037 26 90 1.6 9.7 0.00 0.00 0.00 90 1010.4
20260506184542 26 63 0.0 3.2 0.00 0.00 0.00 91 1010.8
20260506183050 26 172 0.0 9.7 0.00 0.00 0.00 90 1010.9
20260506181539 26 144 1.6 8.0 0.00 0.00 0.00 90 1011.1
20260506180041 26 86 3.2 11.3 0.00 0.00 0.00 90 1011.1
20260506174544 26 121 1.6 9.7 0.00 0.00 0.00 91 1011.0
20260506173038 26 105 1.6 6.4 0.00 0.00 0.00 91 1011.1
20260506171542 26 117 3.2 9.7 0.00 0.00 0.00 91 1011.0
20260506170100 26 127 1.6 8.0 0.00 0.00 0.00 90 1011.0
20260506164538 26 94 1.6 9.7 0.00 0.00 0.00 89 1011.2
20260506163039 26 148 4.8 11.3 0.00 0.00 0.00 90 1011.0
20260506161544 26 108 3.2 14.5 0.00 0.00 0.00 91 1010.5
20260506160040 26 17 1.6 12.9 0.00 0.00 0.00 92 1010.5
20260506154544 26 158 3.2 14.5 0.00 0.00 0.00 92 1010.2
20260506153038 26 129 4.8 12.9 0.00 0.00 0.00 93 1010.0
20260506151543 25 153 3.2 11.3 0.00 0.00 0.00 94 1010.1
20260506150037 25 78 4.8 11.3 0.00 0.00 0.00 94 1009.9
20260506144548 25 96 3.2 11.3 0.00 0.00 0.00 95 1010.2
20260506143041 25 109 1.6 9.7 0.00 0.00 0.00 95 1010.2
20260506141540 25 132 1.6 6.4 0.00 0.00 0.00 95 1010.1
20260506140040 25 81 1.6 8.0 0.00 0.00 0.00 95 1009.9
20260506134538 25 129 1.6 11.3 0.00 0.00 0.00 95 1009.6
20260506133037 25 0 1.6 6.4 0.00 0.00 0.00 95 1009.7
20260506131537 25 52 1.6 9.7 0.00 0.00 0.00 96 1009.5
20260506130045 25 117 1.6 9.7 0.00 0.00 0.00 96 1009.5
20260506124543 24 111 0.0 6.4 0.00 0.00 0.00 96 1009.6
20260506123038 24 72 0.0 6.4 0.00 0.00 0.00 96 1009.6
20260506121537 24 61 1.6 6.4 0.00 0.00 0.00 96 1009.5
20260506120042 24 199 1.6 8.0 0.00 0.00 0.00 96 1009.3
20260506114538 24 37 0.0 6.4 0.00 0.00 0.00 96 1009.1
20260506113042 24 169 3.2 8.0 0.00 0.00 0.00 96 1009.3
20260506111540 24 125 1.6 6.4 0.00 0.00 0.00 97 1009.2
20260506110038 24 119 0.0 4.8 0.00 0.00 0.00 96 1009.1
20260506104540 24 117 0.0 4.8 0.00 0.00 0.00 97 1009.1
20260506103047 24 92 1.6 4.8 0.00 0.00 0.00 97 1008.8
20260506101544 24 0 0.0 4.8 0.00 0.00 0.00 97 1008.8
20260506100041 24 67 0.0 6.4 0.00 0.00 0.00 96 1008.7
20260506094542 24 60 3.2 8.0 0.00 0.00 0.00 96 1008.6
20260506093038 23 115 1.6 4.8 0.00 0.00 0.00 96 1008.5
20260506091538 23 108 1.6 3.2 0.00 0.00 0.00 96 1008.5
20260506090049 24 96 0.0 8.0 0.00 0.00 0.00 96 1008.6
20260506084548 24 124 1.6 8.0 0.00 0.00 0.00 96 1008.7
20260506083043 24 146 1.6 9.7 0.00 0.00 0.00 96 1008.8
20260506081542 24 115 0.0 4.8 0.00 0.00 0.00 96 1008.9
20260506073053 24 149 1.6 8.0 0.00 0.00 0.00 95 1009.5
20260506071541 24 119 3.2 9.7 0.00 0.00 0.00 95 1009.8
20260506061552 24 57 1.6 12.9 0.00 0.00 0.00 95 1009.6